When you browse on this site, cookies collect data to enhance your experience and personalize the content and advertising you see.
Visit our Privacy Policy to learn more. By continuing to use the site, you agree to this use of cookies and data.
  • In Italy
  • List of Countries
  • For 7 days
  • Water Temperature
  • Satellite Maps
  • Weather Map
  • Weather Widgets
  • user-avatar
    Login

    Hourly Weather Blagoevgrad

    Today, 25 May, Saturday

    Time Temperature Precipitation Wind Pressure Humidity
    00:00 +11°C° 0 mm 1 mps 717 mmHg 85%
    01:00 +11°C° 0 mm 1 mps 717 mmHg 85%
    02:00 +10°C° 0 mm 1 mps 717 mmHg 86%
    03:00 +10°C° 0 mm 1 mps 717 mmHg 86%
    04:00 +10°C° 0 mm 1 mps 718 mmHg 86%
    05:00 +10°C° 0 mm 1 mps 718 mmHg 86%
    06:00 +12°C° 0 mm 1 mps 718 mmHg 79%
    07:00 +15°C° 0 mm 1 mps 718 mmHg 72%
    08:00 +18°C° 0 mm 1 mps 719 mmHg 65%
    09:00 +18°C° 0 mm 2 mps 719 mmHg 60%
    10:00 +20°C° 0 mm 2 mps 719 mmHg 56%
    11:00 +21°C° 0 mm 2 mps 719 mmHg 51%
    12:00 +23°C° 0 mm 2 mps 719 mmHg 50%
    13:00 +22°C° 0 mm 3 mps 719 mmHg 49%
    14:00 +24°C° 0 mm 3 mps 719 mmHg 47%
    15:00 +24°C° 0.1 mm 3 mps 719 mmHg 49%
    16:00 +23°C° 0.1 mm 2 mps 718 mmHg 50%
    17:00 +23°C° 0.1 mm 2 mps 718 mmHg 52%
    18:00 +20°C° 0 mm 2 mps 718 mmHg 60%
    19:00 +19°C° 0 mm 1 mps 718 mmHg 69%
    20:00 +16°C° 0 mm 1 mps 718 mmHg 77%
    21:00 +15°C° 0 mm 1 mps 719 mmHg 78%
    22:00 +14°C° 0 mm 1 mps 719 mmHg 80%
    23:00 +13°C° 0 mm 1 mps 720 mmHg 81%

    Tomorrow, 26 May, Sunday

    Time Temperature Precipitation Wind Pressure Humidity
    00:00 +13°C° 0 mm 1 mps 720 mmHg 80%
    01:00 +13°C° 0 mm 1 mps 720 mmHg 79%
    02:00 +13°C° 0 mm 1 mps 719 mmHg 78%
    03:00 +13°C° 0 mm 1 mps 720 mmHg 77%
    04:00 +13°C° 0 mm 1 mps 720 mmHg 76%
    05:00 +13°C° 0 mm 1 mps 720 mmHg 75%
    06:00 +15°C° 0 mm 1 mps 720 mmHg 68%
    07:00 +17°C° 0 mm 0 mps 720 mmHg 60%
    08:00 +20°C° 0 mm 0 mps 721 mmHg 53%
    09:00 +21°C° 0 mm 0 mps 721 mmHg 48%
    10:00 +25°C° 0 mm 1 mps 721 mmHg 43%
    11:00 +27°C° 0 mm 1 mps 721 mmHg 38%
    12:00 +27°C° 0 mm 1 mps 721 mmHg 38%
    13:00 +27°C° 0 mm 2 mps 721 mmHg 37%
    14:00 +28°C° 0 mm 2 mps 721 mmHg 37%
    15:00 +27°C° 0 mm 2 mps 721 mmHg 40%
    16:00 +27°C° 0 mm 2 mps 720 mmHg 43%
    17:00 +27°C° 0 mm 2 mps 720 mmHg 46%
    18:00 +24°C° 0 mm 2 mps 720 mmHg 55%
    19:00 +21°C° 0 mm 2 mps 720 mmHg 65%
    20:00 +20°C° 0 mm 1 mps 720 mmHg 74%
    21:00 +19°C° 0 mm 1 mps 720 mmHg 78%
    22:00 +18°C° 0 mm 1 mps 720 mmHg 81%
    23:00 +16°C° 0 mm 2 mps 720 mmHg 85%

    Day after tomorrow, 27 May, Monday

    Time Temperature Precipitation Wind Pressure Humidity
    00:00 +16°C° 0 mm 1 mps 720 mmHg 85%
    01:00 +16°C° 0 mm 1 mps 720 mmHg 86%
    02:00 +16°C° 0 mm 1 mps 720 mmHg 87%
    03:00 +15°C° 0 mm 1 mps 720 mmHg 87%
    04:00 +15°C° 0 mm 1 mps 720 mmHg 87%
    05:00 +15°C° 0 mm 1 mps 720 mmHg 87%
    06:00 +18°C° 0 mm 1 mps 720 mmHg 78%
    07:00 +21°C° 0 mm 1 mps 721 mmHg 69%
    08:00 +23°C° 0 mm 1 mps 721 mmHg 61%
    09:00 +24°C° 0 mm 2 mps 721 mmHg 55%
    10:00 +25°C° 0 mm 2 mps 721 mmHg 49%
    11:00 +27°C° 0 mm 2 mps 721 mmHg 44%
    12:00 +27°C° 0 mm 3 mps 720 mmHg 44%
    13:00 +27°C° 0 mm 3 mps 720 mmHg 44%
    14:00 +27°C° 0 mm 3 mps 720 mmHg 44%
    15:00 +27°C° 0 mm 3 mps 720 mmHg 47%
    16:00 +26°C° 0 mm 3 mps 719 mmHg 50%
    17:00 +26°C° 0 mm 3 mps 719 mmHg 52%
    18:00 +24°C° 0 mm 3 mps 719 mmHg 58%
    19:00 +21°C° 0 mm 2 mps 718 mmHg 63%
    20:00 +19°C° 0 mm 2 mps 718 mmHg 69%
    21:00 +18°C° 0 mm 2 mps 718 mmHg 69%
    22:00 +17°C° 0 mm 2 mps 718 mmHg 68%
    23:00 +16°C° 0 mm 2 mps 718 mmHg 68%

    28 May, Tuesday

    Time Temperature Precipitation Wind Pressure Humidity
    00:00 +16°C° 0 mm 2 mps 718 mmHg 63%
    01:00 +16°C° 0 mm 2 mps 718 mmHg 58%
    02:00 +16°C° 0 mm 2 mps 718 mmHg 54%
    03:00 +15°C° 0 mm 2 mps 718 mmHg 53%
    04:00 +15°C° 0 mm 2 mps 717 mmHg 52%
    05:00 +15°C° 0 mm 2 mps 717 mmHg 51%
    06:00 +18°C° 0 mm 2 mps 717 mmHg 48%
    07:00 +20°C° 0 mm 3 mps 718 mmHg 46%
    08:00 +24°C° 0 mm 3 mps 718 mmHg 43%
    09:00 +25°C° 0 mm 3 mps 718 mmHg 41%
    10:00 +26°C° 0 mm 4 mps 718 mmHg 39%
    11:00 +27°C° 0 mm 5 mps 718 mmHg 37%
    12:00 +28°C° 0 mm 5 mps 717 mmHg 37%
    13:00 +28°C° 0 mm 5 mps 717 mmHg 37%
    14:00 +28°C° 0 mm 5 mps 717 mmHg 37%
    15:00 +28°C° 0 mm 5 mps 716 mmHg 39%
    16:00 +27°C° 0 mm 5 mps 716 mmHg 42%
    17:00 +27°C° 0 mm 5 mps 716 mmHg 44%
    18:00 +25°C° 0 mm 4 mps 716 mmHg 53%
    19:00 +21°C° 0 mm 3 mps 716 mmHg 62%
    20:00 +19°C° 0 mm 2 mps 716 mmHg 71%
    21:00 +18°C° 0 mm 2 mps 716 mmHg 74%
    22:00 +17°C° 0 mm 2 mps 716 mmHg 77%
    23:00 +16°C° 0 mm 2 mps 717 mmHg 81%

    29 May, Wednesday

    Time Temperature Precipitation Wind Pressure Humidity
    00:00 +16°C° 0 mm 2 mps 717 mmHg 82%
    01:00 +16°C° 0 mm 2 mps 717 mmHg 83%
    02:00 +15°C° 0 mm 2 mps 717 mmHg 84%
    03:00 +15°C° 0 mm 1 mps 717 mmHg 85%
    04:00 +15°C° 0 mm 1 mps 717 mmHg 86%
    05:00 +15°C° 0 mm 1 mps 717 mmHg 87%
    06:00 +18°C° 0 mm 1 mps 718 mmHg 78%
    07:00 +20°C° 0 mm 1 mps 718 mmHg 68%
    08:00 +22°C° 0 mm 1 mps 719 mmHg 58%
    09:00 +24°C° 0 mm 2 mps 719 mmHg 54%
    10:00 +25°C° 0 mm 2 mps 719 mmHg 49%
    11:00 +26°C° 0 mm 2 mps 719 mmHg 45%
    12:00 +27°C° 0 mm 2 mps 719 mmHg 43%
    13:00 +28°C° 0 mm 3 mps 719 mmHg 42%
    14:00 +28°C° 0 mm 3 mps 719 mmHg 41%
    15:00 +28°C° 0 mm 3 mps 719 mmHg 42%
    16:00 +28°C° 0 mm 3 mps 719 mmHg 44%
    17:00 +27°C° 0 mm 3 mps 719 mmHg 46%
    18:00 +25°C° 0 mm 2 mps 719 mmHg 54%
    19:00 +23°C° 0 mm 1 mps 719 mmHg 62%
    20:00 +21°C° 0 mm 1 mps 719 mmHg 71%
    21:00 +20°C° 0 mm 1 mps 719 mmHg 73%
    22:00 +19°C° 0 mm 1 mps 720 mmHg 75%
    23:00 +18°C° 0 mm 1 mps 720 mmHg 77%

    30 May, Thursday

    Time Temperature Precipitation Wind Pressure Humidity
    00:00 +18°C° 0 mm 1 mps 720 mmHg 79%
    01:00 +18°C° 0 mm 1 mps 720 mmHg 80%
    02:00 +16°C° 0 mm 1 mps 720 mmHg 82%
    03:00 +16°C° 0 mm 1 mps 720 mmHg 83%
    04:00 +16°C° 0 mm 1 mps 720 mmHg 83%
    05:00 +16°C° 0 mm 1 mps 721 mmHg 84%
    06:00 +19°C° 0 mm 1 mps 721 mmHg 76%
    07:00 +21°C° 0 mm 1 mps 721 mmHg 68%
    08:00 +24°C° 0 mm 1 mps 722 mmHg 60%
    09:00 +25°C° 0.1 mm 1 mps 722 mmHg 55%
    10:00 +27°C° 0.1 mm 1 mps 722 mmHg 51%
    11:00 +28°C° 0.1 mm 1 mps 722 mmHg 46%
    12:00 +29°C° 0.1 mm 1 mps 721 mmHg 44%
    13:00 +29°C° 0.1 mm 1 mps 721 mmHg 42%
    14:00 +29°C° 0.1 mm 2 mps 720 mmHg 40%
    15:00 +29°C° 0.1 mm 2 mps 720 mmHg 41%
    16:00 +29°C° 0.1 mm 2 mps 720 mmHg 42%
    17:00 +28°C° 0.1 mm 2 mps 720 mmHg 43%
    18:00 +26°C° 0 mm 1 mps 720 mmHg 49%
    19:00 +24°C° 0 mm 1 mps 719 mmHg 56%
    20:00 +19°C° 0 mm 0 mps 719 mmHg 62%
    21:00 +20°C° 0 mm 1 mps 719 mmHg 63%
    22:00 +20°C° 0 mm 1 mps 719 mmHg 64%
    23:00 +19°C° 0 mm 1 mps 719 mmHg 65%
    Show more